| time (UTC) | temp F | wind direction | speed MPH | gust MPH | rain 1hr in | rain 24hr in | rain mn in | humidity % | barometer mb |
| 20260504070137 | 43 | 176 | 1.0 | 3.0 | 0.00 | 0.00 | 0.00 | 91 | 978.3 |
| 20260504050513 | 43 | 298 | 0.0 | 0.0 | 0.00 | 0.00 | 0.00 | 91 | 979.0 |
| 20260504050013 | 43 | 298 | 0.0 | 0.0 | 0.00 | 0.00 | 0.00 | 91 | 979.0 |
| 20260504045507 | 43 | 298 | 0.0 | 1.0 | 0.00 | 0.00 | 0.00 | 91 | 979.1 |
| 20260504045001 | 43 | 298 | 0.0 | 1.0 | 0.00 | 0.00 | 0.00 | 91 | 979.1 |
| 20260504044455 | 43 | 298 | 0.0 | 0.0 | 0.00 | 0.00 | 0.00 | 91 | 979.2 |
| 20260504043949 | 44 | 298 | 0.0 | 0.0 | 0.00 | 0.00 | 0.00 | 91 | 979.2 |
| 20260504042937 | 44 | 298 | 0.0 | 0.0 | 0.00 | 0.00 | 0.00 | 91 | 979.1 |
| 20260504042430 | 44 | 298 | 0.0 | 0.0 | 0.00 | 0.00 | 0.00 | 91 | 979.1 |
| 20260504041924 | 44 | 298 | 0.0 | 0.0 | 0.00 | 0.00 | 0.00 | 90 | 979.1 |
| 20260504040916 | 44 | 298 | 0.0 | 1.0 | 0.00 | 0.00 | 0.00 | 90 | 979.2 |
| 20260504040406 | 44 | 298 | 0.0 | 1.0 | 0.00 | 0.00 | 0.00 | 90 | 979.2 |
| 20260504035901 | 45 | 298 | 0.0 | 1.0 | 0.00 | 0.00 | 0.00 | 90 | 979.2 |
| 20260504034849 | 45 | 298 | 0.0 | 0.0 | 0.00 | 0.00 | 0.00 | 90 | 979.2 |
| 20260504034343 | 45 | 298 | 0.0 | 0.0 | 0.00 | 0.00 | 0.00 | 90 | 979.3 |
| 20260504033837 | 45 | 298 | 0.0 | 1.0 | 0.00 | 0.00 | 0.00 | 90 | 979.3 |
| 20260504033331 | 45 | 298 | 0.0 | 1.0 | 0.00 | 0.00 | 0.00 | 89 | 979.3 |
| 20260504032825 | 45 | 298 | 0.0 | 0.0 | 0.00 | 0.00 | 0.00 | 89 | 979.2 |
| 20260504032318 | 45 | 298 | 0.0 | 0.0 | 0.00 | 0.00 | 0.00 | 89 | 979.3 |
| 20260504031813 | 45 | 298 | 0.0 | 0.0 | 0.00 | 0.00 | 0.00 | 88 | 979.3 |
| 20260504031308 | 45 | 298 | 0.0 | 1.0 | 0.00 | 0.00 | 0.00 | 87 | 979.3 |
| 20260504030801 | 46 | 298 | 0.0 | 1.0 | 0.00 | 0.00 | 0.00 | 88 | 979.3 |
| 20260504030255 | 46 | 298 | 0.0 | 0.0 | 0.00 | 0.00 | 0.00 | 87 | 979.3 |
| 20260504025750 | 46 | 298 | 0.0 | 0.0 | 0.00 | 0.00 | 0.00 | 87 | 979.5 |
| 20260504025243 | 46 | 298 | 0.0 | 1.0 | 0.00 | 0.00 | 0.00 | 87 | 979.5 |
| 20260504024737 | 46 | 298 | 0.0 | 1.0 | 0.00 | 0.00 | 0.00 | 85 | 979.5 |
| 20260504024231 | 46 | 298 | 0.0 | 1.0 | 0.00 | 0.00 | 0.00 | 85 | 979.5 |
| 20260504022713 | 47 | 298 | 0.0 | 1.0 | 0.00 | 0.00 | 0.00 | 83 | 979.4 |
| 20260504022207 | 48 | 298 | 0.0 | 1.0 | 0.00 | 0.00 | 0.00 | 82 | 979.4 |
| 20260504021701 | 48 | 298 | 0.0 | 0.0 | 0.00 | 0.00 | 0.00 | 81 | 979.3 |
| 20260504021155 | 48 | 298 | 0.0 | 0.0 | 0.00 | 0.00 | 0.00 | 81 | 979.4 |
| 20260504020143 | 48 | 298 | 0.0 | 0.0 | 0.00 | 0.00 | 0.00 | 80 | 979.2 |
| 20260504015637 | 49 | 298 | 0.0 | 0.0 | 0.00 | 0.00 | 0.00 | 78 | 979.1 |
| 20260504015131 | 49 | 298 | 0.0 | 0.0 | 0.00 | 0.00 | 0.00 | 77 | 979.0 |
| 20260504014625 | 50 | 298 | 0.0 | 0.0 | 0.00 | 0.00 | 0.00 | 77 | 979.0 |
| 20260504014120 | 50 | 298 | 0.0 | 0.0 | 0.00 | 0.00 | 0.00 | 75 | 979.0 |
| 20260504013613 | 51 | 298 | 0.0 | 0.0 | 0.00 | 0.00 | 0.00 | 74 | 979.0 |
| 20260504013108 | 51 | 298 | 0.0 | 0.0 | 0.00 | 0.00 | 0.00 | 73 | 979.1 |
| 20260504012608 | 51 | 298 | 0.0 | 0.0 | 0.00 | 0.00 | 0.00 | 72 | 979.0 |
| 20260504012108 | 52 | 298 | 0.0 | 0.0 | 0.00 | 0.00 | 0.00 | 72 | 978.9 |
| 20260504011609 | 52 | 298 | 0.0 | 0.0 | 0.00 | 0.00 | 0.00 | 72 | 978.9 |
| 20260504010608 | 53 | 298 | 0.0 | 0.0 | 0.00 | 0.00 | 0.00 | 69 | 978.8 |
| 20260504005607 | 54 | 298 | 0.0 | 0.0 | 0.00 | 0.00 | 0.00 | 67 | 978.7 |
| 20260504004607 | 55 | 298 | 0.0 | 0.0 | 0.00 | 0.00 | 0.00 | 65 | 978.6 |
| 20260504004109 | 56 | 298 | 0.0 | 0.0 | 0.00 | 0.00 | 0.00 | 65 | 978.6 |
| 20260504003607 | 57 | 298 | 0.0 | 1.0 | 0.00 | 0.00 | 0.00 | 61 | 978.5 |
| 20260504003104 | 58 | 298 | 0.0 | 1.0 | 0.00 | 0.00 | 0.00 | 59 | 978.5 |
| 20260504002605 | 59 | 298 | 0.0 | 1.0 | 0.00 | 0.00 | 0.00 | 57 | 978.6 |
| 20260504002104 | 60 | 298 | 0.0 | 1.0 | 0.00 | 0.00 | 0.00 | 56 | 978.6 |
| 20260504001605 | 62 | 298 | 0.0 | 1.0 | 0.00 | 0.00 | 0.00 | 53 | 978.5 |
| 20260504001105 | 64 | 298 | 0.0 | 1.0 | 0.00 | 0.00 | 0.00 | 49 | 978.6 |
| 20260504000606 | 65 | 298 | 0.0 | 2.0 | 0.00 | 0.00 | 0.00 | 46 | 978.5 |
| 20260504000100 | 65 | 298 | 1.0 | 3.0 | 0.00 | 0.00 | 0.00 | 47 | 978.6 |
| 20260503235059 | 66 | 292 | 1.0 | 3.0 | 0.00 | 0.00 | 0.00 | 44 | 978.7 |
| 20260503234558 | 66 | 317 | 1.0 | 3.0 | 0.00 | 0.00 | 0.00 | 44 | 978.8 |
| 20260503234057 | 66 | 299 | 1.0 | 3.0 | 0.00 | 0.00 | 0.00 | 42 | 978.8 |
| 20260503233057 | 66 | 339 | 2.0 | 7.0 | 0.00 | 0.00 | 0.00 | 43 | 978.9 |
| 20260503232555 | 66 | 300 | 3.0 | 7.0 | 0.00 | 0.00 | 0.00 | 43 | 978.9 |
| 20260503232055 | 66 | 267 | 3.0 | 6.0 | 0.00 | 0.00 | 0.00 | 44 | 978.9 |
| 20260503231557 | 66 | 332 | 3.0 | 6.0 | 0.00 | 0.00 | 0.00 | 43 | 978.9 |
| 20260503230555 | 67 | 280 | 2.0 | 5.0 | 0.00 | 0.00 | 0.00 | 40 | 979.1 |
| 20260503230052 | 67 | 303 | 2.0 | 6.0 | 0.00 | 0.00 | 0.00 | 40 | 979.1 |
| 20260503225049 | 66 | 306 | 3.0 | 7.0 | 0.00 | 0.00 | 0.00 | 40 | 979.1 |
| 20260503224046 | 66 | 329 | 5.0 | 10.0 | 0.00 | 0.00 | 0.00 | 41 | 979.1 |
| 20260503223546 | 66 | 320 | 4.0 | 10.0 | 0.00 | 0.00 | 0.00 | 42 | 979.2 |
| 20260503223047 | 67 | 335 | 3.0 | 10.0 | 0.00 | 0.00 | 0.00 | 43 | 979.2 |
| 20260503222547 | 66 | 320 | 4.0 | 10.0 | 0.00 | 0.00 | 0.00 | 40 | 979.2 |
| 20260503222046 | 66 | 306 | 4.0 | 9.0 | 0.00 | 0.00 | 0.00 | 42 | 979.2 |
| 20260503221545 | 66 | 340 | 4.0 | 9.0 | 0.00 | 0.00 | 0.00 | 41 | 979.2 |
| 20260503221046 | 66 | 334 | 4.0 | 11.0 | 0.00 | 0.00 | 0.00 | 38 | 979.3 |
| 20260503220547 | 66 | 287 | 4.0 | 11.0 | 0.00 | 0.00 | 0.00 | 40 | 979.2 |
| 20260503220046 | 67 | 319 | 2.0 | 9.0 | 0.00 | 0.00 | 0.00 | 39 | 979.2 |
| 20260503214546 | 66 | 307 | 4.0 | 12.0 | 0.00 | 0.00 | 0.00 | 40 | 979.4 |
| 20260503213547 | 66 | 275 | 5.0 | 10.0 | 0.00 | 0.00 | 0.00 | 44 | 979.6 |
| 20260503213047 | 66 | 333 | 4.0 | 10.0 | 0.00 | 0.00 | 0.00 | 39 | 979.7 |
| 20260503212046 | 66 | 335 | 5.0 | 11.0 | 0.00 | 0.00 | 0.00 | 42 | 979.6 |
| 20260503211547 | 66 | 309 | 4.0 | 11.0 | 0.00 | 0.00 | 0.00 | 41 | 979.7 |
| 20260503211046 | 66 | 2 | 4.0 | 9.0 | 0.00 | 0.00 | 0.00 | 41 | 979.7 |
| 20260503210547 | 66 | 214 | 3.0 | 9.0 | 0.00 | 0.00 | 0.00 | 41 | 979.7 |
| 20260503210045 | 66 | 326 | 2.0 | 6.0 | 0.00 | 0.00 | 0.00 | 46 | 979.7 |
| 20260503205546 | 66 | 298 | 3.0 | 8.0 | 0.00 | 0.00 | 0.00 | 41 | 979.8 |
| 20260503205046 | 66 | 326 | 4.0 | 11.0 | 0.00 | 0.00 | 0.00 | 43 | 979.9 |
| 20260503204545 | 65 | 298 | 4.0 | 11.0 | 0.00 | 0.00 | 0.00 | 40 | 980.0 |
| 20260503204045 | 66 | 271 | 4.0 | 9.0 | 0.00 | 0.00 | 0.00 | 41 | 980.1 |
| 20260503203543 | 65 | 333 | 4.0 | 10.0 | 0.00 | 0.00 | 0.00 | 43 | 980.2 |
| 20260503203039 | 65 | 282 | 4.0 | 10.0 | 0.00 | 0.00 | 0.00 | 44 | 980.3 |
| 20260503202039 | 66 | 229 | 4.0 | 8.0 | 0.00 | 0.00 | 0.00 | 45 | 980.4 |
| 20260503201541 | 65 | 318 | 3.0 | 9.0 | 0.00 | 0.00 | 0.00 | 43 | 980.5 |
| 20260503201034 | 65 | 297 | 3.0 | 9.0 | 0.00 | 0.00 | 0.00 | 42 | 980.6 |
| 20260503200527 | 65 | 344 | 3.0 | 8.0 | 0.00 | 0.00 | 0.00 | 40 | 980.7 |
| 20260503200026 | 64 | 328 | 5.0 | 11.0 | 0.00 | 0.00 | 0.00 | 41 | 980.8 |
| 20260503195528 | 64 | 335 | 7.0 | 11.0 | 0.00 | 0.00 | 0.00 | 42 | 981.0 |
| 20260503195025 | 64 | 10 | 6.0 | 14.0 | 0.00 | 0.00 | 0.00 | 43 | 981.2 |
| 20260503194525 | 64 | 301 | 6.0 | 14.0 | 0.00 | 0.00 | 0.00 | 42 | 981.2 |
| 20260503194022 | 64 | 343 | 6.0 | 12.0 | 0.00 | 0.00 | 0.00 | 45 | 981.2 |
| 20260503193523 | 64 | 332 | 5.0 | 10.0 | 0.00 | 0.00 | 0.00 | 41 | 981.2 |
| 20260503192020 | 64 | 307 | 5.0 | 13.0 | 0.00 | 0.00 | 0.00 | 44 | 981.5 |
| 20260503191520 | 64 | 26 | 6.0 | 11.0 | 0.00 | 0.00 | 0.00 | 44 | 981.6 |
| 20260503191020 | 64 | 330 | 6.0 | 11.0 | 0.00 | 0.00 | 0.00 | 45 | 981.7 |
| 20260503190517 | 64 | 317 | 5.0 | 11.0 | 0.00 | 0.00 | 0.00 | 44 | 981.7 |
| 20260503190016 | 63 | 331 | 6.0 | 11.0 | 0.00 | 0.00 | 0.00 | 43 | 981.7 |
| 20260503185515 | 63 | 298 | 6.0 | 12.0 | 0.00 | 0.00 | 0.00 | 41 | 981.8 |
| 20260503184508 | 63 | 333 | 6.0 | 14.0 | 0.00 | 0.00 | 0.00 | 43 | 981.8 |
| 20260503184001 | 63 | 301 | 5.0 | 13.0 | 0.00 | 0.00 | 0.00 | 40 | 981.9 |
| 20260503183456 | 63 | 260 | 5.0 | 12.0 | 0.00 | 0.00 | 0.00 | 44 | 981.9 |
| 20260503182950 | 63 | 268 | 5.0 | 12.0 | 0.00 | 0.00 | 0.00 | 46 | 982.0 |
| 20260503182443 | 63 | 335 | 6.0 | 12.0 | 0.00 | 0.00 | 0.00 | 44 | 982.0 |
| 20260503181940 | 63 | 9 | 4.0 | 11.0 | 0.00 | 0.00 | 0.00 | 48 | 982.0 |
| 20260503180926 | 62 | 323 | 6.0 | 12.0 | 0.00 | 0.00 | 0.00 | 48 | 982.1 |
| 20260503180420 | 62 | 299 | 5.0 | 11.0 | 0.00 | 0.00 | 0.00 | 48 | 982.1 |
| 20260503175914 | 62 | 278 | 4.0 | 11.0 | 0.00 | 0.00 | 0.00 | 50 | 982.1 |
| 20260503175408 | 62 | 320 | 5.0 | 10.0 | 0.00 | 0.00 | 0.00 | 45 | 982.2 |
| 20260503174902 | 62 | 344 | 4.0 | 11.0 | 0.00 | 0.00 | 0.00 | 48 | 982.3 |
| 20260503174356 | 61 | 332 | 4.0 | 11.0 | 0.00 | 0.00 | 0.00 | 46 | 982.4 |
| 20260503173344 | 61 | 355 | 4.0 | 8.0 | 0.00 | 0.00 | 0.00 | 49 | 982.6 |
| 20260503172844 | 61 | 266 | 4.0 | 10.0 | 0.00 | 0.00 | 0.00 | 51 | 982.6 |
| 20260503172344 | 61 | 285 | 4.0 | 10.0 | 0.00 | 0.00 | 0.00 | 49 | 982.8 |
| 20260503171846 | 60 | 335 | 3.0 | 9.0 | 0.00 | 0.00 | 0.00 | 49 | 982.7 |
| 20260503171345 | 60 | 344 | 4.0 | 9.0 | 0.00 | 0.00 | 0.00 | 50 | 982.8 |
| 20260503170844 | 60 | 316 | 4.0 | 10.0 | 0.00 | 0.00 | 0.00 | 44 | 982.9 |
| 20260503150820 | 56 | 316 | 3.0 | 7.0 | 0.00 | 0.00 | 0.00 | 57 | 983.5 |
| 20260503150319 | 56 | 331 | 2.0 | 7.0 | 0.00 | 0.00 | 0.00 | 58 | 983.5 |
| 20260503140307 | 52 | 320 | 1.0 | 4.0 | 0.00 | 0.00 | 0.00 | 76 | 983.5 |
| 20260503131303 | 46 | 325 | 1.0 | 4.0 | 0.00 | 0.00 | 0.00 | 95 | 983.3 |
| 20260503130801 | 45 | 311 | 1.0 | 4.0 | 0.00 | 0.00 | 0.00 | 95 | 983.3 |
| 20260503130302 | 44 | 322 | 1.0 | 3.0 | 0.00 | 0.00 | 0.00 | 96 | 983.3 |
| 20260503110750 | 37 | 306 | 0.0 | 0.0 | 0.00 | 0.00 | 0.00 | 94 | 982.3 |
| 20260503081450 | 42 | 306 | 0.0 | 0.0 | 0.00 | 0.00 | 0.00 | 93 | 981.5 |
| 20260503080943 | 42 | 306 | 0.0 | 0.0 | 0.00 | 0.00 | 0.00 | 93 | 981.5 |
| 20260503080437 | 42 | 306 | 0.0 | 0.0 | 0.00 | 0.00 | 0.00 | 93 | 981.5 |
| 20260503072855 | 42 | 306 | 0.0 | 0.0 | 0.00 | 0.00 | 0.00 | 92 | 981.2 |
| 20260503072349 | 42 | 306 | 0.0 | 0.0 | 0.00 | 0.00 | 0.00 | 92 | 981.2 |